Wind_Speed
48 48 45 40 40 35 34 38 42 32 33 42 45 55 63 57 43 38 47 32 31 30 38 19 25 29 32 25 37 42 42 18 26 26 23 22 28 22 26 21 12 18 13 5
46 40 42 44 42 41 42 46 46 31 34 51 55 53 55 52 46 44 36 37 29 28 32 26 29 28 27 28 32 40 38 37 22 22 25 24 26 25 24 24 21 22 7 10
42 40 44 44 45 45 48 51 48 46 41 46 51 54 57 42 46 41 40 32 30 25 30 29 21 25 29 25 28 35 37 34 29 19 28 25 24 24 26 28 21 17 18 15
44 42 43 42 49 51 52 61 45 56 55 54 58 44 31 42 39 49 37 39 35 31 25 25 23 24 18 26 30 35 31 34 37 32 28 27 26 27 27 30 27 23 26 22
45 44 45 56 51 53 60 67 55 56 41 53 47 50 45 42 38 41 52 43 38 31 36 24 28 25 24 24 25 31 31 29 32 37 30 35 25 29 31 27 29 26 25 26
47 48 47 51 59 60 67 70 67 37 61 33 47 54 56 48 37 36 44 49 33 30 34 25 20 26 29 22 23 33 24 25 28 34 32 30 36 32 28 25 30 27 28 24
50 49 47 53 59 63 69 72 67 52 38 51 39 48 47 42 34 38 38 44 44 40 24 31 28 17 27 7 25 25 22 22 31 21 26 23 30 30 30 27 25 24 24 23
46 50 51 53 58 69 72 69 70 68 37 34 48 35 39 37 37 36 38 41 42 35 32 26 19 13 11 11 20 22 22 13 19 18 27 26 23 22 19 21 27 26 27 25
47 50 54 55 60 66 68 71 56 67 63 36 30 35 34 38 36 36 42 35 36 36 33 27 13 8 16 5 4 20 30 9 15 11 9 14 25 25 24 25 28 24 21 21
44 50 51 57 58 64 66 65 49 54 56 48 32 34 36 32 31 37 36 38 38 37 37 39 25 21 21 16 16 14 23 30 18 16 13 17 21 27 24 27 27 17 20 22
40 45 43 52 53 54 58 59 44 55 53 38 30 36 32 34 35 38 38 34 39 28 30 33 20 17 24 24 26 21 23 23 24 13 9 18 11 24 31 30 27 26 14 16
37 43 41 48 50 48 58 54 58 53 46 42 37 33 34 28 26 33 37 45 40 33 24 20 22 12 24 28 23 21 26 28 23 19 23 17 15 26 18 22 18 19 13 20
36 39 43 47 47 46 50 42 51 46 46 38 29 36 29 23 31 41 41 45 41 36 36 17 18 15 16 24 26 22 20 24 22 18 23 27 16 16 18 23 22 24 21 13
34 41 43 41 45 45 40 46 45 47 31 26 27 31 26 32 37 38 35 40 34 31 34 27 22 24 20 28 24 27 27 14 23 24 26 22 19 19 23 23 25 23 23 22
38 40 41 40 42 44 38 34 37 48 36 25 24 25 29 27 25 43 39 40 36 46 35 37 39 25 21 16 18 25 24 22 22 22 22 22 26 26 27 27 32 30 32 32
37 39 41 40 43 39 39 41 34 39 41 19 19 20 20 23 24 25 38 41 47 41 42 46 23 18 19 16 28 23 25 26 26 30 28 27 30 29 26 22 23 23 26 29
39 40 39 42 43 48 37 35 39 34 37 20 10 3 7 15 18 19 38 46 36 39 38 26 30 30 26 27 24 18 15 15 18 20 22 27 32 34 29 25 25 23 26 29
33 32 38 38 35 34 25 25 29 29 25 21 8 8 9 13 19 21 18 51 37 38 23 22 26 26 25 28 25 25 25 26 23 22 22 28 32 29 28 29 27 22 24 28
28 29 29 29 28 30 25 19 15 19 23 12 11 14 9 15 16 20 20 44 40 25 31 22 16 26 22 23 22 21 24 26 25 28 31 28 32 29 26 31 31 30 29 27
28 28 28 26 21 16 11 9 10 13 20 15 17 20 20 3 17 25 20 29 35 26 34 21 27 14 28 20 24 27 32 33 30 26 24 27 26 25 31 32 31 31 31 28
27 25 23 23 18 13 9 7 6 7 6 11 20 20 20 17 11 31 24 24 25 21 20 22 17 25 27 31 33 32 30 28 27 30 31 32 26 28 31 30 30 33 32 30
20 21 23 19 10 7 5 5 5 5 4 5 10 18 14 13 9 17 33 24 16 12 21 18 3 9 19 30 35 35 37 37 39 38 36 32 31 33 34 33 31 31 32 32
20 26 15 4 5 5 5 3 3 3 1 3 4 0 5 5 7 10 14 8 7 16 17 7 1 7 9 16 28 33 35 38 41 42 42 43 43 44 45 44 42 43 43 41
15 9 6 4 4 4 6 8 10 8 6 5 3 2 1 5 2 5 7 7 10 5 5 4 4 1 2 5 9 14 19 23 25 25 26 29 32 33 32 32 33 34 30 25
4 4 3 4 6 9 12 11 8 6 3 2 0 1 3 1 2 2 5 4 8 8 6 1 2 3 3 2 2 2 4 6 7 8 10 10 10 10 10 9 6 4 2 3
3 3 3 6 8 8 11 12 13 9 7 5 3 1 2 2 3 3 7 6 7 3 3 3 2 3 3 4 4 5 6 6 5 4 4 5 7 7 7 8 10 11 11 11
4 7 3 3 4 7 9 9 10 10 8 9 5 4 2 1 4 6 7 7 4 5 4 3 3 4 5 6 7 8 7 6 6 7 7 8 10 11 10 9 11 10 9 6
Wind_Direction
256 253 249 244 234 217 212 213 218 232 208 192 206 221 226 231 230 228 235 244 258 260 243 247 247 227 224 218 212 211 209 237 246 209 214 220 229 225 227 236 217 266 214 258
254 239 231 230 224 211 210 210 215 213 218 201 214 226 232 232 228 225 234 238 241 241 261 269 252 242 225 222 210 209 211 227 231 228 227 220 230 228 234 240 236 227 196 254
243 239 226 222 219 212 209 206 207 209 212 224 224 223 231 238 229 228 232 237 240 248 244 249 268 227 229 227 211 205 210 217 226 235 217 220 225 226 227 230 236 228 221 242
246 240 223 224 215 213 210 207 207 206 207 212 218 219 226 234 232 222 215 232 233 241 246 250 262 242 243 211 220 210 207 218 226 236 237 225 222 226 230 242 223 205 233 245
243 240 232 216 221 211 214 210 204 208 217 220 213 211 223 223 228 217 221 223 223 233 236 231 253 267 231 216 206 204 211 222 225 238 233 245 235 244 231 233 239 243 243 243
248 243 233 219 212 222 211 215 216 215 217 223 212 214 218 223 220 229 220 221 224 232 228 242 246 243 231 217 207 209 210 212 220 234 234 244 252 236 248 234 234 239 244 252
244 236 233 225 212 212 217 216 214 201 207 211 218 225 220 225 222 227 218 221 222 225 246 238 245 256 230 210 196 195 202 220 226 229 227 240 250 249 244 250 252 248 253 253
238 233 228 220 212 209 221 214 212 209 207 215 219 220 220 223 223 227 222 220 220 217 236 251 261 216 228 229 189 200 189 222 228 236 223 244 240 232 231 231 246 249 249 252
234 229 225 222 213 206 203 213 205 213 215 210 221 214 213 218 217 221 220 216 212 224 231 228 226 203 210 229 221 215 219 237 254 233 210 228 237 227 244 245 259 245 248 250
230 222 219 219 213 209 208 204 201 204 211 216 218 216 214 209 211 218 218 209 216 218 211 222 232 235 224 220 203 195 222 233 256 247 244 250 240 237 229 245 240 260 249 251
222 214 210 204 202 202 202 209 202 194 208 207 218 206 202 205 209 217 212 212 212 208 202 206 214 227 219 223 237 212 219 222 236 234 239 238 217 226 224 237 240 244 260 239
200 198 193 196 190 192 196 203 194 196 203 206 218 216 209 199 210 218 211 212 212 216 209 199 205 212 215 211 234 229 210 222 224 224 232 258 260 231 223 227 234 243 270 248
172 173 180 178 181 185 191 194 191 194 202 200 196 213 213 203 212 207 202 209 215 215 213 205 215 220 220 208 220 225 244 241 234 243 245 245 232 226 240 238 238 238 244 257
157 163 165 171 174 179 185 183 183 186 169 181 197 218 218 224 215 216 206 208 209 215 214 214 219 216 213 221 218 224 231 223 237 244 246 257 262 256 257 253 249 261 264 269
143 149 157 159 161 163 165 182 185 193 205 210 199 216 233 234 225 215 206 210 211 198 217 209 227 216 207 209 220 223 227 240 243 254 260 251 253 255 250 259 255 262 266 261
136 140 145 148 152 157 174 169 185 191 196 168 177 199 222 231 232 229 220 206 213 214 218 208 208 210 204 229 230 221 232 232 239 247 249 257 269 264 261 265 258 243 257 261
136 142 147 154 157 170 180 176 169 170 185 173 173 175 213 232 229 225 218 217 208 210 218 228 209 218 222 236 242 238 234 246 266 269 263 257 258 260 261 255 251 257 252 254
129 140 156 165 169 174 175 175 182 195 202 204 187 208 226 230 226 226 232 214 216 213 214 220 215 216 221 242 244 251 256 253 238 238 250 252 256 264 261 257 256 255 258 258
127 140 146 154 167 174 170 180 184 191 189 196 225 222 212 214 219 213 220 209 215 214 223 222 215 217 217 222 220 217 226 237 243 246 247 250 258 261 262 259 258 262 264 266
126 132 142 141 139 138 123 123 154 184 209 219 219 219 238 210 190 185 198 200 204 221 222 223 219 218 221 223 222 225 230 233 235 243 246 246 253 260 255 257 259 260 260 272
141 144 134 140 128 131 119 121 135 174 212 243 232 233 250 267 209 188 198 201 198 216 219 213 219 220 229 223 221 227 232 243 252 259 261 258 257 256 265 267 268 270 271 268
133 132 133 139 128 97 97 118 105 151 187 184 216 232 258 266 221 184 207 218 164 183 196 204 170 206 235 238 239 240 246 249 252 255 255 257 261 261 264 269 273 276 267 276
128 130 130 118 78 95 120 119 109 94 94 186 134 81 296 278 210 189 171 188 159 150 170 145 173 278 270 254 255 256 256 256 257 257 258 261 263 266 268 273 278 284 283 277
99 99 112 121 128 128 139 153 150 141 106 113 140 162 289 310 72 133 160 175 135 112 85 86 2 312 257 262 262 258 255 258 262 264 265 267 267 269 271 270 270 270 272 274
109 103 120 146 158 182 168 173 170 187 174 131 208 292 357 355 287 72 94 63 56 70 71 43 36 54 52 26 346 284 250 248 256 260 260 261 259 254 256 251 249 252 239 205
111 96 179 233 244 219 208 206 207 211 219 223 221 67 284 79 70 52 56 51 59 61 129 109 83 77 92 96 98 99 93 81 71 74 87 98 94 87 85 99 100 100 94 93
78 49 98 172 198 202 207 208 200 201 208 180 176 152 135 112 47 62 68 82 145 128 134 126 119 111 111 114 119 117 101 88 84 85 88 85 84 82 83 86 90 84 83 78
Height
2926 2931 2938 2944 2951 2960 2965 2968 2968 2973 2985 2992 2992 2982 2969 2995 3000 3011 3013 3017 3019 3019 3021 3023 3022 3023 3026 3032 3036 3038 3043 3049 3050 3052 3054 3058 3060 3061 3063 3062 3063 3064 3064 3065
2909 2915 2923 2931 2939 2946 2953 2955 2961 2970 2974 2973 2970 2976 2975 2983 2991 2999 3010 3012 3014 3016 3016 3019 3020 3019 3024 3024 3028 3032 3039 3042 3048 3047 3052 3051 3052 3056 3057 3058 3060 3059 3065 3062
2894 2901 2909 2918 2926 2935 2942 2947 2951 2959 2959 2962 2964 2964 2963 2976 2986 2997 3005 3008 3013 3013 3013 3012 3013 3016 3018 3019 3023 3030 3033 3035 3035 3038 3045 3047 3048 3049 3051 3052 3053 3055 3056 3058
2879 2887 2896 2904 2913 2923 2930 2928 2930 2933 2938 2942 2941 2963 2967 2973 2979 2985 2995 3001 3005 3008 3009 3007 3008 3013 3011 3012 3017 3022 3025 3027 3033 3036 3037 3040 3042 3043 3045 3045 3048 3048 3054 3052
2863 2871 2879 2890 2900 2910 2913 2912 2920 2928 2934 2941 2947 2952 2957 2963 2969 2978 2981 2989 2993 3000 3003 3007 3009 3005 3004 3010 3012 3015 3020 3022 3028 3029 3033 3033 3038 3038 3038 3040 3041 3042 3045 3046
2846 2853 2862 2873 2884 2891 2889 2897 2914 2923 2923 2931 2938 2938 2940 2948 2967 2973 2979 2986 2995 2999 2998 3005 2996 3000 2999 3002 3007 3009 3014 3018 3022 3021 3028 3031 3026 3030 3031 3034 3036 3038 3038 3041
2830 2837 2845 2855 2867 2875 2881 2885 2904 2911 2914 2925 2926 2935 2942 2951 2961 2966 2973 2984 2988 2991 3001 2997 2999 2996 2996 2992 2998 3002 3007 3015 3017 3019 3025 3020 3021 3025 3028 3029 3030 3032 3033 3035
2811 2819 2828 2838 2850 2864 2870 2877 2891 2900 2910 2918 2925 2933 2939 2948 2955 2960 2967 2973 2977 2992 2995 2994 2993 2992 2994 2989 2993 2999 3003 3011 3010 3013 3015 3018 3018 3021 3023 3025 3027 3028 3028 3030
2794 2802 2812 2823 2835 2849 2862 2869 2882 2895 2906 2911 2921 2928 2934 2941 2948 2955 2956 2965 2977 2984 2985 2987 2984 2983 2989 2992 2994 2998 3004 3005 3010 3007 3007 3008 3012 3017 3021 3023 3019 3022 3023 3024
2775 2786 2796 2809 2822 2835 2848 2862 2875 2890 2899 2910 2919 2920 2927 2934 2942 2946 2952 2959 2968 2971 2972 2977 2980 2982 2986 2988 2992 2995 3001 3002 3003 3005 3005 3002 3006 3012 3017 3016 3019 3017 3020 3020
2760 2772 2784 2798 2813 2827 2841 2855 2871 2883 2893 2906 2907 2914 2919 2927 2934 2938 2944 2959 2961 2957 2965 2970 2973 2974 2977 2983 2987 2987 2992 3000 3001 3003 3003 3000 3003 3007 3008 3011 3011 3015 3015 3015
2752 2764 2779 2792 2809 2824 2839 2851 2870 2881 2894 2901 2905 2913 2917 2921 2927 2936 2941 2943 2948 2952 2951 2962 2967 2970 2973 2973 2980 2985 2986 2988 2992 2996 2994 2998 2999 3002 3003 3005 3005 3008 3010 3010
2749 2765 2780 2794 2810 2824 2837 2852 2868 2878 2888 2898 2901 2906 2914 2920 2922 2924 2928 2938 2947 2946 2955 2959 2961 2964 2969 2969 2972 2980 2982 2984 2985 2989 2989 2991 2991 2994 2998 3000 3001 3002 3002 3003
2759 2772 2786 2800 2814 2828 2842 2853 2866 2877 2882 2892 2900 2904 2910 2915 2920 2922 2927 2930 2936 2944 2951 2953 2955 2960 2964 2965 2969 2974 2979 2980 2980 2983 2985 2987 2988 2992 2993 2993 2995 2995 2997 2998
2773 2784 2796 2808 2821 2834 2848 2858 2868 2878 2887 2891 2898 2903 2906 2911 2915 2919 2922 2928 2933 2937 2939 2947 2950 2955 2962 2963 2966 2965 2973 2975 2976 2977 2980 2982 2984 2985 2985 2985 2987 2989 2989 2991
2787 2796 2806 2817 2829 2839 2847 2860 2870 2878 2886 2893 2898 2901 2902 2908 2912 2916 2919 2925 2930 2935 2935 2940 2945 2950 2956 2957 2957 2963 2967 2970 2972 2972 2975 2976 2976 2976 2977 2978 2979 2980 2982 2982
2800 2808 2817 2828 2838 2847 2855 2863 2871 2878 2886 2891 2896 2900 2901 2903 2908 2911 2914 2920 2927 2932 2934 2931 2941 2945 2949 2951 2952 2958 2962 2965 2967 2967 2968 2968 2968 2967 2968 2969 2972 2972 2973 2973
2812 2819 2827 2835 2843 2853 2859 2866 2873 2877 2885 2891 2894 2896 2899 2900 2902 2907 2910 2917 2924 2926 2928 2932 2935 2942 2946 2945 2949 2952 2954 2957 2958 2959 2960 2959 2959 2960 2961 2961 2963 2964 2965 2965
2825 2831 2838 2845 2853 2859 2865 2872 2877 2881 2888 2889 2891 2895 2897 2897 2900 2904 2906 2913 2919 2923 2925 2930 2936 2936 2938 2937 2940 2942 2942 2944 2946 2946 2948 2951 2950 2951 2953 2952 2954 2955 2956 2957
2837 2843 2849 2855 2860 2866 2870 2874 2878 2881 2884 2887 2889 2890 2892 2895 2897 2900 2905 2910 2918 2922 2923 2928 2927 2928 2928 2931 2934 2935 2935 2935 2937 2938 2940 2941 2943 2944 2944 2944 2945 2946 2946 2948
2845 2849 2853 2860 2866 2870 2873 2876 2879 2881 2883 2885 2886 2889 2890 2892 2896 2899 2904 2908 2914 2917 2919 2923 2922 2924 2921 2923 2926 2925 2927 2929 2931 2930 2933 2933 2937 2937 2935 2935 2936 2937 2938 2940
2853 2857 2862 2866 2869 2872 2876 2877 2879 2880 2882 2882 2885 2887 2887 2889 2890 2895 2899 2899 2902 2907 2912 2915 2910 2913 2913 2915 2918 2920 2921 2922 2922 2924 2926 2926 2928 2928 2928 2928 2929 2930 2929 2930
2860 2863 2866 2869 2871 2873 2876 2877 2879 2880 2880 2881 2884 2885 2886 2886 2885 2887 2891 2890 2894 2899 2905 2907 2910 2909 2909 2910 2911 2912 2913 2914 2914 2915 2916 2917 2919 2919 2920 2919 2919 2918 2918 2919
2862 2865 2867 2869 2871 2873 2874 2877 2880 2883 2882 2882 2882 2883 2883 2881 2881 2882 2886 2886 2892 2896 2902 2909 2909 2908 2908 2908 2907 2907 2906 2906 2907 2907 2908 2908 2909 2909 2909 2909 2909 2908 2907 2907
2864 2866 2867 2869 2870 2872 2875 2877 2880 2881 2881 2883 2883 2884 2884 2884 2882 2882 2885 2887 2892 2899 2907 2908 2907 2906 2906 2905 2905 2904 2904 2904 2904 2904 2904 2903 2903 2903 2903 2903 2902 2903 2903 2903
2867 2868 2868 2868 2868 2871 2875 2877 2879 2881 2882 2883 2885 2885 2886 2887 2887 2886 2887 2893 2901 2906 2906 2907 2907 2907 2906 2906 2905 2905 2905 2905 2905 2905 2904 2903 2903 2903 2903 2903 2903 2904 2905 2905
2868 2869 2868 2867 2868 2869 2870 2872 2875 2878 2881 2884 2887 2887 2888 2888 2888 2892 2897 2904 2905 2906 2907 2907 2907 2907 2907 2906 2906 2906 2906 2907 2907 2907 2906 2906 2905 2906 2906 2907 2907 2908 2908 2909